Simultaneous Nadir Overpasses (SNOs) Predictions

Prediction of SNOs over PacNW region [( 10.00, 139.50) to ( 22.70, 165.60)] between AQUA and NPP Satellites:

Table of predicted SNOs over PacNW region for the next 30.0 days since TLE Epoch: 10/4/2019
Index Date (AQUA) Time (AQUA) AQUA Lat,Lon Date (NPP) Time (NPP) NPP Lat,Lon Distance(km) Time Diff (sec)
1 10/05/2019 15:09:49 22.60, 159.82 10/05/2019 15:11:24 23.18, 157.23 273.69 95
2 10/08/2019 03:31:40 22.66, 147.51 10/08/2019 03:28:11 24.56, 145.29 309.09 209
3 10/13/2019 15:59:16 22.58, 147.45 10/13/2019 16:02:06 23.23, 144.54 306.65 170
4 10/21/2019 15:09:49 22.63, 159.82 10/21/2019 15:11:20 23.20, 157.21 274.49 91
5 10/24/2019 03:31:38 22.65, 147.50 10/24/2019 03:28:09 24.74, 145.23 328.44 209
6 10/29/2019 15:59:14 22.63, 147.45 10/29/2019 16:02:01 23.26, 144.53 307.77 167




NCC Satellite Simultaneous Nadir Overpasses (SNOs) Prediction Service
